Home > Weather > Babylon > Past weeks

Flag for U.S.A. Weather for the Past 2 Weeks in Babylon, New York, U.S.A.

Now
23 °F

Clear.


Feels Like: 13 °F
Forecast: 7 / 24 °F
Wind: 9 mph from West

Location: Republic Airport

Current Time: Feb 13, 2016 at 1:01:02 AM

Latest Report: Feb 12, 2016 at 11:53 PM


Visibility: 10 mi

Pressure: 29.93 "Hg

Humidity: 53%

Dew point: 8 °F

Location of BabylonLocation

Historic Weather in Babylon — Graph

°F

Babylon Temperature Yesterday

Maximum temperature yesterday: 25 °F (at 5:53 PM)
Minimum temperature yesterday: 16 °F (at 4:53 AM)
Average temperature yesterday: 21 °F

High & Low Weather Summary for the Past Weeks

 TemperatureHumidityPressure
High61 °F (Feb 1, 11:53 AM)100% (Feb 7, 7:53 AM)30.44 "Hg (Feb 7, 7:53 AM)
Low16 °F (Feb 12, 4:53 AM)31% (Feb 11, 10:53 AM)29.44 "Hg (Jan 29, 12:53 PM)
Average37 °F66%29.96 "Hg
* Reported Jan 28 11:53 PM — Feb 12 11:53 PM, Babylon, Weather by CustomWeather, © 2016

Note: Actual official high and low records may vary slightly from our data, if they occured in-between our weather recording intervals... More about our weather records

Advertising

Babylon Weather History for the Previous 24 Hours

 ConditionsComfort  
Time TempWeatherWind HumidityBarometerVisibility
11:53 PM
Fri, Feb 12
23 °FClear.9 mph53%29.93 "Hg10 mi
10:53 PM23 °FClear.7 mph57%29.94 "Hg10 mi
9:53 PM23 °FOvercast.8 mph60%29.96 "Hg9 mi
8:53 PM24 °FOvercast.13 mph48%29.96 "Hg10 mi
7:53 PM25 °FOvercast.9 mph44%29.98 "Hg10 mi
6:53 PM25 °FOvercast.9 mph48%30.01 "Hg10 mi
5:53 PM25 °FMostly cloudy.7 mph50%30.02 "Hg10 mi
3:53 PM24 °FPassing clouds.7 mph48%30.07 "Hg10 mi
2:53 PM24 °FSunny.10 mph46%30.09 "Hg10 mi
1:53 PM24 °FSunny.13 mph42%30.12 "Hg10 mi
12:53 PM24 °FSunny.9 mph38%30.14 "Hg10 mi
11:53 AM24 °FSunny.5 mph36%30.20 "Hg10 mi
10:53 AM23 °FSunny.No wind40%30.23 "Hg10 mi
9:53 AM20 °FSunny.5 mph43%30.25 "Hg10 mi
8:53 AM19 °FSunny.6 mph45%30.27 "Hg10 mi
7:53 AM17 °FSunny.7 mph47%30.28 "Hg10 mi
6:53 AM16 °FSunny.8 mph47%30.26 "Hg10 mi
5:53 AM16 °FClear.7 mph47%30.25 "Hg10 mi
4:53 AM16 °FClear.8 mph47%30.25 "Hg10 mi
3:53 AM17 °FClear.8 mph45%30.23 "Hg10 mi
2:53 AM17 °FClear.7 mph42%30.24 "Hg10 mi
1:53 AM18 °FClear.13 mph41%30.22 "Hg10 mi
Weather by CustomWeather, © 2016

See weather overviewHow to use our weather pages